TimeCST,TemperatureF,Dew PointF,Humidity,Sea Level PressureIn,VisibilityMPH,Wind Direction,Wind SpeedMPH,Gust SpeedMPH,PrecipitationIn,Events,Conditions,WindDirDegrees,DateUTC
12:16 AM,26.6,23.0,86,30.25,10.0,Calm,Calm,-,N/A,,Overcast,0,2012-11-05 06:16:00
12:37 AM,26.6,24.8,93,30.25,10.0,Calm,Calm,-,N/A,,Overcast,0,2012-11-05 06:37:00
12:56 AM,26.6,23.0,86,30.25,10.0,Calm,Calm,-,N/A,,Overcast,0,2012-11-05 06:56:00
1:16 AM,26.6,23.0,86,30.25,10.0,Calm,Calm,-,N/A,,Overcast,0,2012-11-05 07:16:00
1:37 AM,26.6,24.8,93,30.25,10.0,Calm,Calm,-,N/A,,Overcast,0,2012-11-05 07:37:00
1:56 AM,24.8,23.0,93,30.25,10.0,Calm,Calm,-,N/A,,Overcast,0,2012-11-05 07:56:00
2:16 AM,24.8,21.2,86,30.25,10.0,Calm,Calm,-,N/A,,Overcast,0,2012-11-05 08:16:00
2:37 AM,23.0,21.2,93,30.25,10.0,Calm,Calm,-,N/A,,Mostly Cloudy,0,2012-11-05 08:37:00
2:56 AM,23.0,21.2,93,30.25,10.0,Calm,Calm,-,N/A,,Scattered Clouds,0,2012-11-05 08:56:00
3:16 AM,21.2,19.4,93,30.25,10.0,Calm,Calm,-,N/A,,Mostly Cloudy,0,2012-11-05 09:16:00
3:37 AM,19.4,19.4,100,30.25,10.0,Calm,Calm,-,N/A,,Scattered Clouds,0,2012-11-05 09:37:00
3:56 AM,19.4,17.6,93,30.25,10.0,Calm,Calm,-,N/A,,Clear,0,2012-11-05 09:56:00
4:16 AM,19.4,17.6,93,30.26,10.0,Calm,Calm,-,N/A,,Clear,0,2012-11-05 10:16:00
4:37 AM,17.6,17.6,100,30.25,10.0,Calm,Calm,-,N/A,,Scattered Clouds,0,2012-11-05 10:37:00
4:56 AM,17.6,15.8,93,30.24,10.0,Calm,Calm,-,N/A,,Mostly Cloudy,0,2012-11-05 10:56:00
5:16 AM,17.6,15.8,93,30.24,10.0,Calm,Calm,-,N/A,,Overcast,0,2012-11-05 11:16:00
5:37 AM,17.6,17.6,100,30.24,10.0,Calm,Calm,-,N/A,,Overcast,0,2012-11-05 11:37:00
6:16 AM,17.6,17.6,100,30.23,10.0,Calm,Calm,-,N/A,,Mostly Cloudy,0,2012-11-05 12:16:00
6:37 AM,17.6,15.8,93,30.22,10.0,Calm,Calm,-,N/A,,Mostly Cloudy,0,2012-11-05 12:37:00
6:56 AM,17.6,15.8,93,30.23,10.0,Calm,Calm,-,N/A,,Scattered Clouds,0,2012-11-05 12:56:00
7:16 AM,15.8,15.8,100,30.22,10.0,Calm,Calm,-,N/A,,Clear,0,2012-11-05 13:16:00
7:37 AM,15.8,15.8,100,30.23,10.0,Calm,Calm,-,N/A,,Clear,0,2012-11-05 13:37:00
7:56 AM,17.6,15.8,93,30.23,10.0,Calm,Calm,-,N/A,,Clear,0,2012-11-05 13:56:00
8:16 AM,19.4,17.6,93,30.23,10.0,Calm,Calm,-,N/A,,Clear,0,2012-11-05 14:16:00
8:37 AM,24.8,21.2,86,30.22,10.0,Calm,Calm,-,N/A,,Scattered Clouds,0,2012-11-05 14:37:00
8:56 AM,26.6,23.0,86,30.22,10.0,Calm,Calm,-,N/A,,Mostly Cloudy,0,2012-11-05 14:56:00
9:17 AM,28.4,24.8,86,30.22,10.0,Calm,Calm,-,N/A,,Overcast,0,2012-11-05 15:17:00
9:37 AM,30.2,24.8,80,30.22,10.0,Calm,Calm,-,N/A,,Overcast,0,2012-11-05 15:37:00
9:56 AM,30.2,24.8,80,30.21,10.0,Calm,Calm,-,N/A,,Overcast,0,2012-11-05 15:56:00
10:17 AM,32.0,24.8,75,30.21,10.0,South,5.8,-,N/A,,Overcast,180,2012-11-05 16:17:00
10:37 AM,33.8,26.6,75,30.20,10.0,SSE,6.9,-,N/A,,Mostly Cloudy,150,2012-11-05 16:37:00
10:56 AM,33.8,24.8,70,30.19,10.0,ESE,5.8,-,N/A,,Scattered Clouds,120,2012-11-05 16:56:00
11:17 AM,35.6,26.6,70,30.18,10.0,SSE,6.9,-,N/A,,Mostly Cloudy,160,2012-11-05 17:17:00
11:37 AM,35.6,26.6,70,30.18,10.0,South,3.5,-,N/A,,Overcast,170,2012-11-05 17:37:00
11:56 AM,35.6,26.6,70,30.17,10.0,South,5.8,-,N/A,,Overcast,180,2012-11-05 17:56:00
12:17 PM,35.6,26.6,70,30.16,10.0,SSW,4.6,-,N/A,,Overcast,210,2012-11-05 18:17:00
12:37 PM,35.6,26.6,70,30.15,10.0,South,6.9,-,N/A,,Overcast,170,2012-11-05 18:37:00
12:56 PM,35.6,26.6,70,30.14,10.0,South,6.9,-,N/A,,Overcast,180,2012-11-05 18:56:00
1:17 PM,35.6,26.6,70,30.13,10.0,South,4.6,-,N/A,,Overcast,180,2012-11-05 19:17:00
1:37 PM,35.6,26.6,70,30.12,10.0,South,3.5,-,N/A,,Overcast,170,2012-11-05 19:37:00
1:56 PM,35.6,26.6,70,30.10,10.0,South,4.6,-,N/A,,Overcast,170,2012-11-05 19:56:00
1:57 PM,35.6,26.6,70,30.10,10.0,South,4.6,-,N/A,,Overcast,170,2012-11-05 19:57:00
2:47 PM,35.6,26.6,70,30.08,10.0,SSE,3.5,-,N/A,,Overcast,160,2012-11-05 20:47:00
2:56 PM,35.6,26.6,70,30.08,10.0,SSE,4.6,-,N/A,,Overcast,150,2012-11-05 20:56:00
3:17 PM,35.6,26.6,70,30.07,10.0,SSE,3.5,-,N/A,,Overcast,150,2012-11-05 21:17:00
3:36 PM,35.6,26.6,70,30.06,10.0,SSE,3.5,-,N/A,,Overcast,150,2012-11-05 21:36:00
3:56 PM,35.6,26.6,70,30.05,10.0,Calm,Calm,-,N/A,,Overcast,0,2012-11-05 21:56:00
4:17 PM,35.6,26.6,70,30.04,10.0,Calm,Calm,-,N/A,,Overcast,0,2012-11-05 22:17:00
4:36 PM,35.6,26.6,70,30.04,10.0,Calm,Calm,-,N/A,,Overcast,0,2012-11-05 22:36:00
4:57 PM,35.6,26.6,70,30.03,10.0,Calm,Calm,-,N/A,,Overcast,0,2012-11-05 22:57:00
5:16 PM,35.6,26.6,70,30.02,10.0,Calm,Calm,-,N/A,,Overcast,0,2012-11-05 23:16:00
5:36 PM,35.6,26.6,70,30.02,10.0,SE,3.5,-,N/A,,Overcast,140,2012-11-05 23:36:00
5:56 PM,35.6,26.6,70,30.01,10.0,SE,5.8,-,N/A,,Overcast,140,2012-11-05 23:56:00
6:16 PM,35.6,26.6,70,30.00,10.0,SE,5.8,-,N/A,,Overcast,140,2012-11-06 00:16:00
6:37 PM,35.6,26.6,70,29.99,10.0,SSE,5.8,-,N/A,,Overcast,150,2012-11-06 00:37:00
6:56 PM,35.6,26.6,70,29.98,10.0,SSE,6.9,-,N/A,,Overcast,150,2012-11-06 00:56:00
7:16 PM,35.6,26.6,70,29.97,10.0,SSE,5.8,-,N/A,,Overcast,160,2012-11-06 01:16:00
7:37 PM,35.6,26.6,70,29.97,10.0,South,9.2,-,N/A,,Overcast,170,2012-11-06 01:37:00
7:56 PM,35.6,28.4,75,29.95,10.0,SSE,8.1,-,N/A,,Overcast,160,2012-11-06 01:56:00
8:16 PM,35.6,28.4,75,29.94,10.0,SSE,9.2,-,N/A,,Overcast,150,2012-11-06 02:16:00
8:37 PM,33.8,28.4,81,29.94,10.0,SSE,12.7,-,N/A,,Overcast,160,2012-11-06 02:37:00
8:56 PM,33.8,28.4,81,29.93,10.0,SSE,8.1,18.4,N/A,,Overcast,160,2012-11-06 02:56:00
9:16 PM,33.8,28.4,81,29.92,10.0,SSE,9.2,-,N/A,,Overcast,150,2012-11-06 03:16:00
9:36 PM,33.8,30.2,87,29.91,10.0,SSE,9.2,-,N/A,,Overcast,150,2012-11-06 03:36:00
9:56 PM,33.8,30.2,87,29.90,10.0,SSE,9.2,-,N/A,,Overcast,150,2012-11-06 03:56:00
10:17 PM,33.8,30.2,87,29.89,5.0,SSE,6.9,-,N/A,,Overcast,150,2012-11-06 04:17:00
10:36 PM,33.8,30.2,87,29.88,3.0,SSE,8.1,-,N/A,,Overcast,150,2012-11-06 04:36:00
10:57 PM,33.8,32.0,93,29.86,4.0,SSE,5.8,-,N/A,,Overcast,150,2012-11-06 04:57:00
11:17 PM,33.8,32.0,93,29.85,3.0,SE,8.1,-,N/A,Snow,Light Snow,140,2012-11-06 05:17:00
11:36 PM,33.8,32.0,93,29.84,4.0,SE,6.9,-,N/A,,Overcast,140,2012-11-06 05:36:00
11:57 PM,33.8,32.0,93,29.83,4.0,SSE,6.9,-,N/A,,Overcast,150,2012-11-06 05:57:00